Regional Weather Roundup
Issued by NWS Bismarck, ND

Home | Current Version | Previous Version | Text Only | Print | Product List | Glossary On
Versions: 1 2 3 4 5 6 7 8 9 10 11 12 13 14 15 16 17 18 19 20 21 22 23 24 25 26 27 28 29 30 31 32 33 34 35 36 37 38 39 40 41 42 43 44 45 46 47 48 49 50
000
ASUS43 KBIS 020210
RWRBIS

NWR BROADCAST TEXT
NATIONAL WEATHER SERVICE BISMARCK ND
800 PM CST THU DEC 01 2016

NOTE: "FAIR" INDICATES FEW OR NO CLOUDS BELOW 12,000 FEET WITH NO
SIGNIFICANT WEATHER AND/OR OBSTRUCTIONS TO VISIBILITY.


CITY           SKY/WX    TMP DP  RH WIND       PRES   REMARKS
WILLISTON      CLOUDY    29  24  82 SE3       30.04R
MINOT          CLOUDY    28  22  78 CALM      30.06R
MINOT AFB      CLOUDY    27  22  81 SW2       30.05R
BISMARCK       CLOUDY    28  24  85 NE5       30.07R
DICKINSON      CLOUDY    25  22  88 CALM      30.00R
GARRISON         N/A     27  22  81 NE3       30.05R
HETTINGER ARPT CLOUDY    25  22  88 NE5       30.01S WCI  19
JAMESTOWN      CLOUDY    28  22  78 N6        30.03R
BEACH          CLOUDY    23  23 100 SE3       30.03R
CARRINGTON     CLOUDY    27  23  86 N9        30.07R WCI  17
HAZEN          MOCLDY    27  25  93 CALM      30.08R
RUGBY            N/A     27  25  93 N6        30.07R WCI  20
STANLEY        CLOUDY    25  25 100 CALM      30.06R
TIOGA          CLOUDY    27  27 100 E3        30.05R
WATFORD CITY   CLOUDY    27  25  93 CALM      30.04R
$$

CITY           SKY/WX    TMP DP  RH WIND       PRES   REMARKS
GRAND FORKS    CLOUDY    30  23  75 N14       30.06R WCI  19
GRAND FORKS AF CLOUDY    28  24  84 N9        30.06R WCI  19
DEVILS LAKE    CLOUDY    27  23  85 N10       30.06R WCI  17
FARGO          CLOUDY    30  23  75 N12       30.05R
CANDO          CLOUDY    27  25  93 N12       30.09R WCI  16
CAVALIER         N/A     28  27  93 N7        30.07S
GRAFTON        CLOUDY    28  27  93 N15       30.08S WCI  17
GWINNER        CLOUDY    30  27  86 N10       30.04S
LANGDON        CLOUDY    27  25  93 N9        30.05R WCI  17
ROLLA          CLOUDY    25  25 100 N5        30.06R WCI  19
WALHALLA         N/A     28  28 100 N12       30.08R WCI  18
$$

CITY           SKY/WX    TMP DP  RH WIND       PRES   REMARKS
ABERDEEN       CLOUDY    30  25  81 N7        30.05R
MOBRIDGE       LGT SNOW  30  26  85 NE6       30.02R FOG
BUFFALO          N/A     25  22  88 E5        29.92R WCI  19
RAPID CITY     CLOUDY    22  17  81 N3        29.99R
GLASGOW        CLOUDY    26  23  88 VRB6      29.99R WCI  19
WOLF POINT     CLOUDY    26  22  84 E8        30.03R WCI  18
GLENDIVE       CLOUDY    26  23  88 E3        30.01R
MILES CITY     CLOUDY    25  19  78 SE5       29.99R WCI  19
BAKER          CLOUDY    21  18  88 SE3       29.99R
$$

CITY           SKY/WX    TMP DP  RH WIND       PRES   REMARKS
BILLINGS       MOCLDY    34  20  56 W14       29.98R
GREAT FALLS    LGT SNOW  30  29  96 NW5       30.04R FOG
REGINA         CLOUDY    28  27  93 SE8       30.02R
ESTEVAN        FLURRIES  27  25  93 SE3       30.05R
$$





USA.gov is the U.S. government's official web portal to all federal, state and local government web resources and services.